Weather History for PANN - September, 2014

Change the Weather History Date:

Thursday, September 4, 2014

  Actual Average Record
Temperature  
Mean Temperature 50 °F -  
Max Temperature 60 °F 58 °F 77 °F (1949)
Min Temperature 37 °F 38 °F 37 °F (2014)
Degree Days  
Heating Degree Days 16    
Moisture  
Dew Point 33 °F    
Average Humidity 73    
Maximum Humidity 95    
Minimum Humidity 40    
Precipitation  
Precipitation 0.00 in - - ()
Sea Level Pressure  
Sea Level Pressure 30.06 in    
Wind  
Wind Speed 2 mph (ENE)    
Max Wind Speed 8 mph    
Max Gust Speed -    
Visibility 9 miles    
Events      
Averages and records for this station are not official NWS values.
T = Trace of Precipitation, MM = Missing Value Source: NWS Daily Summary

Daily Weather History Graph

Daily Weather History Graph

Search for Another Location

Airport or City:

Trip Planner

Search our weather history database for the weather conditions in past years. The results will help you decide how hot, cold, wet, or windy it might be!

Date:

Astronomy

Sep. 04, 2014 Rise Set
Actual Time 6:46 AM AKDT 9:01 PM AKDT
Civil Twilight 5:53 AM AKDT 9:54 PM AKDT
Nautical Twilight 4:41 AM AKDT 11:05 PM AKDT
Astronomical Twilight 2:31 AM AKDT 1:02 AM AKDT
Moon 6:56 PM AKDT (9/4) 12:30 AM AKDT (9/4)
Length of Visible Light 16h 00m
Length of Day
14h 14m
Waxing Gibbous, 76% of the Moon is Illuminated
Sep 4
Waxing Gibbous
Sep 8
Full
Sep 15
Last Quarter
Sep 23
New
Oct 1
First Quarter

Hourly Weather History & Observations

Time (AKDT) Temp. Windchill Dew Point Humidity Pressure Visibility Wind Dir Wind Speed Gust Speed Precip Events Conditions
12:53 AM 32.0 °F - 28.0 °F 85% 30.12 in 10.0 mi Calm Calm - N/A   Clear
1:53 AM 30.9 °F - 28.0 °F 89% 30.11 in 10.0 mi Calm Calm - N/A   Clear
2:35 AM 30.0 °F - 27.0 °F 88% 30.08 in 10.0 mi Calm Calm - N/A   Scattered Clouds
2:53 AM 30.0 °F - 28.0 °F 92% 30.11 in 10.0 mi Calm Calm - N/A   Partly Cloudy
3:53 AM 30.0 °F - 27.0 °F 88% 30.11 in 2.5 mi Calm Calm - N/A   Partly Cloudy
4:01 AM 28.9 °F - 27.0 °F 92% 30.08 in 1.5 mi Calm Calm - N/A   Scattered Clouds
4:03 AM 30.0 °F - 27.0 °F 88% 30.08 in 2.0 mi Calm Calm - N/A   Mostly Cloudy
4:11 AM 28.9 °F - 27.0 °F 92% 30.08 in 10.0 mi Calm Calm - N/A   Mostly Cloudy
4:31 AM 30.0 °F - 26.1 °F 85% 30.07 in 10.0 mi Calm Calm - N/A   Partly Cloudy
4:53 AM 30.0 °F - 26.1 °F 85% 30.10 in 10.0 mi Calm Calm - N/A   Clear
5:53 AM 28.9 °F 25.2 °F 26.1 °F 89% 30.09 in 10.0 mi East 3.5 mph - N/A   Clear
6:53 AM 30.9 °F - 26.1 °F 82% 30.09 in 10.0 mi Calm Calm - N/A   Clear
7:53 AM 30.9 °F 27.5 °F 28.0 °F 89% 30.08 in 10.0 mi East 3.5 mph - N/A   Clear
8:53 AM 34.0 °F 28.8 °F 30.9 °F 89% 30.07 in 10.0 mi East 5.8 mph - N/A   Clear
9:53 AM 39.0 °F 34.0 °F 33.1 °F 79% 30.06 in 10.0 mi ENE 6.9 mph - N/A   Clear
10:53 AM 43.0 °F 38.2 °F 33.1 °F 68% 30.05 in 10.0 mi ENE 8.1 mph - N/A   Clear
11:53 AM 46.0 °F 41.9 °F 34.0 °F 63% 30.04 in 10.0 mi ENE 8.1 mph - N/A   Clear
12:53 PM 50.0 °F - 33.1 °F 52% 30.02 in 10.0 mi East 8.1 mph - N/A   Clear
1:53 PM 53.1 °F - 33.1 °F 47% 29.99 in 10.0 mi East 8.1 mph - N/A   Clear
2:53 PM 54.0 °F - 32.0 °F 43% 29.98 in 10.0 mi East 8.1 mph - N/A   Clear
3:53 PM 55.0 °F - 30.9 °F 40% 29.97 in 10.0 mi ESE 8.1 mph - N/A   Clear
4:53 PM 55.0 °F - 32.0 °F 42% 29.95 in 10.0 mi East 8.1 mph - N/A   Clear
5:53 PM 54.0 °F - 30.9 °F 41% 29.94 in 10.0 mi NE 6.9 mph - N/A   Clear
6:53 PM 53.1 °F - 30.9 °F 43% 29.94 in 10.0 mi NNE 5.8 mph - N/A   Clear
7:53 PM 51.1 °F - 30.9 °F 46% 29.94 in 10.0 mi NNE 3.5 mph - N/A   Clear
8:53 PM 48.0 °F - 32.0 °F 54% 29.93 in 10.0 mi North 3.5 mph - N/A   Clear
9:53 PM 42.1 °F 40.2 °F 32.0 °F 67% 29.93 in 10.0 mi Variable 3.5 mph - N/A   Clear
10:53 PM 39.9 °F - 30.9 °F 70% 29.93 in 10.0 mi Calm Calm - N/A   Mostly Cloudy
11:53 PM 37.0 °F - 30.0 °F 76% 29.94 in 10.0 mi Calm Calm - N/A   Clear